Weather History for Show Low, AZ

Change the Weather History Date:

Friday, April 12, 2013

  Actual Average Record
Temperature  
Mean Temperature 46 °F -  
Max Temperature 62 °F 57 °F 77 °F (1971)
Min Temperature 30 °F 38 °F 23 °F (1967)
Degree Days  
Heating Degree Days 19    
Moisture  
Dew Point 23 °F    
Average Humidity 42    
Maximum Humidity 80    
Minimum Humidity 17    
Precipitation  
Precipitation 0.00 in - - ()
Sea Level Pressure  
Sea Level Pressure 29.98 in    
Wind  
Wind Speed 6 mph (SSW)    
Max Wind Speed 12 mph    
Max Gust Speed -    
Visibility 10 miles    
Events      
Averages and records for this station are not official NWS values.
T = Trace of Precipitation, MM = Missing Value Source: NWS Daily Summary

Daily Weather History Graph

Daily Weather History Graph

Search for Another Location

Airport:

Trip Planner

Search our weather history database for the weather conditions in past years. The results will help you decide how hot, cold, wet, or windy it might be!

Date:

Astronomy

Apr. 12, 2013 Rise Set
Actual Time 5:52 AM MST 6:49 PM MST
Civil Twilight 5:26 AM MST 7:15 PM MST
Nautical Twilight 4:56 AM MST 7:45 PM MST
Astronomical Twilight 4:24 AM MST 8:17 PM MST
Moon 7:10 AM MST (4/12) 9:16 PM MST (4/12)
Length of Visible Light 13h 48m
Length of Day
12h 57m
Waxing Crescent, 6% of the Moon is Illuminated
Apr 12
Waxing Crescent
Apr 18
First Quarter
Apr 25
Full
May 2
Last Quarter
May 9
New

Hourly Weather History & Observations

Time (MST) Temp. Windchill Dew Point Humidity Pressure Visibility Wind Dir Wind Speed Gust Speed Precip Events Conditions
12:15 AM 37.4 °F 31.4 °F 28.4 °F 70% 29.97 in 10.0 mi South 8.1 mph - N/A   Clear
12:35 AM 37.4 °F 32.1 °F 26.6 °F 65% 29.97 in 10.0 mi South 6.9 mph - N/A   Clear
12:55 AM 37.4 °F 31.4 °F 26.6 °F 65% 29.97 in 10.0 mi South 8.1 mph - N/A   Clear
1:15 AM 37.4 °F 30.8 °F 26.6 °F 65% 29.97 in 10.0 mi South 9.2 mph - N/A   Clear
1:35 AM 39.2 °F 35.0 °F 26.6 °F 61% 29.97 in 10.0 mi South 5.8 mph - N/A   Clear
1:55 AM 37.4 °F 29.8 °F 26.6 °F 65% 29.96 in 10.0 mi South 11.5 mph - N/A   Clear
2:15 AM 37.4 °F 30.8 °F 26.6 °F 65% 29.96 in 10.0 mi South 9.2 mph - N/A   Clear
2:35 AM 35.6 °F 30.7 °F 26.6 °F 70% 29.96 in 10.0 mi South 5.8 mph - N/A   Clear
2:55 AM 35.6 °F 29.9 °F 26.6 °F 70% 29.96 in 10.0 mi SSW 6.9 mph - N/A   Clear
3:15 AM 35.6 °F 30.7 °F 26.6 °F 70% 29.96 in 10.0 mi South 5.8 mph - N/A   Clear
3:35 AM 35.6 °F 29.9 °F 26.6 °F 70% 29.96 in 10.0 mi South 6.9 mph - N/A   Clear
3:55 AM 35.6 °F 31.7 °F 26.6 °F 70% 29.96 in 10.0 mi SSE 4.6 mph - N/A   Clear
4:15 AM 33.8 °F 30.8 °F 26.6 °F 75% 29.95 in 10.0 mi South 3.5 mph - N/A   Clear
4:35 AM 33.8 °F 29.6 °F 26.6 °F 75% 29.96 in 10.0 mi South 4.6 mph - N/A   Clear
4:55 AM 32.0 °F 26.4 °F 26.6 °F 80% 29.96 in 10.0 mi South 5.8 mph - N/A   Clear
5:15 AM 32.0 °F 26.4 °F 26.6 °F 80% 29.96 in 10.0 mi South 5.8 mph - N/A   Clear
5:35 AM 32.0 °F 28.7 °F 24.8 °F 75% 29.96 in 10.0 mi South 3.5 mph - N/A   Clear
5:55 AM 32.0 °F - 24.8 °F 75% 29.97 in 10.0 mi Calm Calm - N/A   Clear
6:15 AM 30.2 °F 26.7 °F 24.8 °F 80% 29.97 in 10.0 mi South 3.5 mph - N/A   Clear
6:35 AM 32.0 °F 27.5 °F 26.6 °F 80% 29.98 in 10.0 mi South 4.6 mph - N/A   Clear
6:55 AM 37.4 °F 34.9 °F 28.4 °F 70% 29.98 in 10.0 mi South 3.5 mph - N/A   Clear
7:15 AM 41.0 °F 39.0 °F 32.0 °F 70% 29.98 in 10.0 mi SSE 3.5 mph - N/A   Clear
7:35 AM 48.2 °F - 30.2 °F 50% 29.99 in 9.0 mi Calm Calm - N/A   Clear
7:55 AM 50.0 °F - 28.4 °F 43% 29.99 in 10.0 mi Calm Calm - N/A   Clear
8:15 AM 50.0 °F - 19.4 °F 30% 29.99 in 10.0 mi North 3.5 mph - N/A   Clear
8:35 AM 51.8 °F - 17.6 °F 26% 30.00 in 10.0 mi WNW 4.6 mph - N/A   Clear
8:55 AM 51.8 °F - 19.4 °F 28% 30.00 in 10.0 mi Calm Calm - N/A   Clear
9:15 AM 53.6 °F - 19.4 °F 26% 30.00 in 10.0 mi North 4.6 mph - N/A   Clear
9:35 AM 55.4 °F - 17.6 °F 23% 30.01 in 10.0 mi Calm Calm - N/A   Clear
9:55 AM 55.4 °F - 17.6 °F 23% 30.00 in 10.0 mi North 3.5 mph - N/A   Clear
10:15 AM 55.4 °F - 17.6 °F 23% 30.01 in 10.0 mi Calm Calm - N/A   Clear
10:35 AM 57.2 °F - 17.6 °F 21% 30.00 in 10.0 mi Calm Calm - N/A   Clear
10:55 AM 57.2 °F - 17.6 °F 21% 30.01 in 10.0 mi Calm Calm - N/A   Clear
11:15 AM 59.0 °F - 17.6 °F 20% 30.00 in 10.0 mi West 3.5 mph - N/A   Clear
11:35 AM 57.2 °F - 17.6 °F 21% 29.99 in 10.0 mi NW 6.9 mph - N/A   Clear
11:55 AM 59.0 °F - 17.6 °F 20% 29.99 in 10.0 mi NNW 5.8 mph - N/A   Clear
12:15 PM 59.0 °F - 17.6 °F 20% 29.99 in 10.0 mi SW 9.2 mph - N/A   Clear
12:35 PM 59.0 °F - 17.6 °F 20% 29.98 in 10.0 mi NE 4.6 mph - N/A   Clear
12:55 PM 59.0 °F - 17.6 °F 20% 29.97 in 10.0 mi North 5.8 mph - N/A   Clear
1:15 PM 60.8 °F - 17.6 °F 19% 29.97 in 10.0 mi North 4.6 mph - N/A   Clear
1:35 PM 60.8 °F - 17.6 °F 19% 29.96 in 10.0 mi SW 5.8 mph - N/A   Clear
1:55 PM 60.8 °F - 17.6 °F 19% 29.95 in 10.0 mi NW 4.6 mph - N/A   Partly Cloudy
2:15 PM 62.6 °F - 17.6 °F 18% 29.95 in 10.0 mi WNW 4.6 mph - N/A   Partly Cloudy
2:35 PM 60.8 °F - 15.8 °F 17% 29.95 in 10.0 mi North 8.1 mph - N/A   Scattered Clouds
2:55 PM 59.0 °F - 17.6 °F 20% 29.94 in 10.0 mi NNE 9.2 mph - N/A   Mostly Cloudy
3:15 PM 62.6 °F - 17.6 °F 18% 29.94 in 10.0 mi North 6.9 mph - N/A   Mostly Cloudy
3:35 PM 60.8 °F - 17.6 °F 19% 29.94 in 10.0 mi NNW 4.6 mph - N/A   Mostly Cloudy
3:55 PM 60.8 °F - 19.4 °F 20% 29.94 in 10.0 mi North 8.1 mph - N/A   Mostly Cloudy
4:15 PM 60.8 °F - 19.4 °F 20% 29.94 in 10.0 mi NNE 6.9 mph - N/A   Mostly Cloudy
4:35 PM 59.0 °F - 17.6 °F 20% 29.94 in 10.0 mi WNW 4.6 mph - N/A   Scattered Clouds
4:55 PM 59.0 °F - 17.6 °F 20% 29.93 in 10.0 mi West 4.6 mph - N/A   Scattered Clouds
5:15 PM 59.0 °F - 19.4 °F 22% 29.93 in 10.0 mi West 4.6 mph - N/A   Clear
5:35 PM 59.0 °F - 17.6 °F 20% 29.94 in 10.0 mi WSW 4.6 mph - N/A   Mostly Cloudy
5:55 PM 57.2 °F - 23.0 °F 27% 29.94 in 10.0 mi WSW 6.9 mph - N/A   Overcast
6:15 PM 57.2 °F - 24.8 °F 29% 29.94 in 10.0 mi WSW 9.2 mph - N/A   Mostly Cloudy
6:35 PM 55.4 °F - 24.8 °F 31% 29.95 in 10.0 mi SSW 9.2 mph - N/A   Partly Cloudy
6:55 PM 55.4 °F - 26.6 °F 33% 29.95 in 10.0 mi SW 6.9 mph - N/A   Scattered Clouds
7:15 PM 51.8 °F - 26.6 °F 38% 29.96 in 10.0 mi SSW 3.5 mph - N/A   Partly Cloudy
7:35 PM 51.8 °F - 26.6 °F 38% 29.97 in 10.0 mi South 5.8 mph - N/A   Scattered Clouds
7:55 PM 50.0 °F - 26.6 °F 40% 29.98 in 10.0 mi South 9.2 mph - N/A   Overcast
8:15 PM 50.0 °F - 28.4 °F 43% 29.99 in 10.0 mi SSW 5.8 mph - N/A   Scattered Clouds
8:35 PM 50.0 °F - 28.4 °F 43% 30.01 in 10.0 mi SW 3.5 mph - N/A   Scattered Clouds
8:55 PM 50.0 °F - 26.6 °F 40% 30.02 in 10.0 mi SSW 4.6 mph - N/A   Mostly Cloudy
9:15 PM 50.0 °F - 26.6 °F 40% 30.02 in 10.0 mi South 6.9 mph - N/A   Overcast
9:35 PM 48.2 °F - 26.6 °F 43% 30.03 in 10.0 mi South 9.2 mph - N/A   Mostly Cloudy
9:55 PM 48.2 °F - 24.8 °F 40% 30.03 in 10.0 mi South 9.2 mph - N/A   Partly Cloudy
10:15 PM 48.2 °F - 26.6 °F 43% 30.03 in 10.0 mi South 9.2 mph - N/A   Clear
10:35 PM 46.4 °F 43.5 °F 26.6 °F 46% 30.03 in 10.0 mi SSW 5.8 mph - N/A   Clear
10:55 PM 44.6 °F 40.7 °F 24.8 °F 46% 30.03 in 10.0 mi South 6.9 mph - N/A   Clear
11:15 PM 44.6 °F 39.7 °F 26.6 °F 49% 30.03 in 10.0 mi South 9.2 mph - N/A   Clear
11:35 PM 44.6 °F 39.7 °F 24.8 °F 46% 30.02 in 10.0 mi South 9.2 mph - N/A   Clear
11:55 PM 42.8 °F 40.1 °F 24.8 °F 49% 30.02 in 10.0 mi South 4.6 mph - N/A   Clear